Terug naar catalogus

STARLINK-4348

ActiefCommunicatieSSO
NORAD 53075·PAYLOAD·🇺🇸 United States

Gelanceerd Jul 11, 2022 vanaf Vandenberg Space Force Base

Loading…

Volgende Passages (komende 24 uur)

TLE

VersSource: CelesTrak SupGP

Epoch: Sep 14, 2026, 21:39 UTC

1 53075C 22077AJ  26257.90256944  .00062912  00000+0  19527-2 0  2571
2 53075  97.2854  72.7765 0001543  93.5997 334.8547 15.33410711    17

Volg STARLINK-4348 in realtime met AllMySat

Download on the App Store